STARLINK-1146, 45094

Orbit data source: Space-Track

STARLINK-1146, 45094 is a payload satellite owned by SpaceX/Seattle (US) in LEO that was launched on Wed, 29 Jan 2020 UTC via an FALCON 9 launch vehicle from the Air Force Eastern Test Range (AFETR). Payloads include a variety of satellites, spacecraft, and rockets equipped with specific instruments for various scientific and technological missions. These include communications satellites like Starlink; space stations such as the ISS; scientific satellites like the Hubble; Earth observation satellites from companies like Planet Labs, Umbra, and HawkEye 360; GPS; miniature CubeSats for education and research; and military/defense satellites.

Loading next visibility...
STARLINK-1146 details
Identifier
45094, 2020-006BC
Orbit
LEO
Last TLE update11 hours ago
Origin
Flag of USSpaceX/Seattle (US)
ManufacturerSpaceX/Seattle
MissionOperational Commercial Communications
Bus & MotorSTARLINK, Unknown motor
Mass260 kg wet, ~248 kg dry
Launch date (UTC)
2020-01-29 (5 years ago)
Launch vehicle
FALCON 9
Launch site
Air Force Eastern Test Range (AFETR)
Object type
Payload
Rocket body
Debris
Shape & HBRBox + 1 Pan, 8.86 m
Radar Cross Section13.562 m², Large (>1 m²)

Expand to show TLE details & history

TLE from 11 hours ago
0 STARLINK-1146
1 45094U 20006BC  24336.89931426 -.00002493  00000-0 -14859-3 0  9990
2 45094  53.0519 164.1553 0001782  98.0466 262.0725 15.06387984267621
Epoch: 2024-12-01T21:35Z
Definitive object data (Epoch: 2024-12-01T21:35:00.752Z)
Latitude-0.00002°
Longitude129.17125°
Altitude548.298 km
Speed7.589 km/s
True Right ascension10h 56m 37s
True Declination0° 00' 00"
Sunlit
Object was in daylight at TLE epoch
Visualization TLE readout
Latitude-29.16572°
Longitude-28.12137°
Altitude556.641 km
Speed7.583 km/s
Apparent Right ascension21h 37m 58s
Apparent Declination-45° 58' 41"
Sunlit
Object is in daylight
Visualization observer readout
Local Sidereal Time05:52:03
Azimuth242.215° WSW
Elevation-49.092°
Doppler factor1
Orbital elements
Apogee altitude548.754 km
Perigee altitude546.285 km
Semi-major axis6,925.657 km
Eccentricity0.0001782
Inclination53.0519°
RAAN164.1553°
Arg. of periapsis98.0466°
True anomaly262.05228°
Mean anomaly262.0725°
Eccentric anomaly262.06239°
Mean motion3.76575 °/min
BSTAR-0.00014859
Orbital period95.6 mins
Loading maneuver chart data...
Loading historical data...
Loading historical data...
Loading historical data...
Loading historical data...
Loading historical data...
Loading historical data...
Loading historical data...

STARLINK-1146 Visibility forecast

Observer location: undefined°, undefined

Span
Click to sort rows by Start time (UTC) header in descending order
Start Az.
Max El. time (UTC)
Max El. Az.
Max El.
End time (UTC)
End Az.
7 mins2024-12-02 15:15:53.050Z221.134° SW2024-12-02 15:19:53.050Z105.06° ESE43.042°2024-12-02 15:22:53.050Z55.11° ENE
4 mins2024-12-02 16:57:53.050Z302.196° NW2024-12-02 16:59:53.050Z345.263° N21.614°2024-12-02 17:01:53.050Z21.122° NNE
4 mins2024-12-02 20:19:53.050Z356.653° N2024-12-02 20:20:53.050Z15.424° NNE17.859°2024-12-02 20:23:53.050Z63.984° ENE
6 mins2024-12-02 21:58:53.050Z318.174° NNW2024-12-02 22:00:53.050Z3.684° NNE42.729°2024-12-02 22:04:53.050Z122.336° SE
|